Location: Zagreb
(45.8000°N, 16.0000°E)
Time: 21:48:48
(UTC+01:00)

Vanguard 2 Rocket - Pass Details

Date: 01 February 2020
Orbit: 553 x 3327 km, 32.9° (Epoch: 24 February)

Event Time Altitude Azimuth Distance (km) Brightness Sun altitude
Exits shadow 06:09:54 - 234° (SW) 2,275 8.6 -12.2°
Reaches altitude 10° 06:11:03 10° 222° (SW) 2,027 8.4 -12.0°
Maximum altitude 06:13:43 15° 185° (S) 1,891 8.6 -11.6°
Drops below altitude 10° 06:16:54 10° 150° (SSE) 2,530 9.8 -11.0°
Sets 06:21:14 0° 130° (SE) 3,958 11.5 -10.3°
